• In Hungary
  • List of Countries
  • For 7 days
  • Water Temperature
  • Satellite Maps
  • Weather Map
  • News
  • Weather Widgets
  • user-avatar
    Login

    Hourly Weather Staromustafino

    Today, 21 August, Tuesday

    Time Temperature Precipitation Wind Pressure Humidity
    00:00 +13°C° 0 mm 2 mps 750 mmHg 83%
    01:00 +13°C° 0 mm 2 mps 750 mmHg 84%
    02:00 +13°C° 0 mm 2 mps 750 mmHg 85%
    03:00 +13°C° 0 mm 2 mps 750 mmHg 85%
    04:00 +14°C° 0 mm 2 mps 749 mmHg 86%
    05:00 +15°C° 0.1 mm 2 mps 749 mmHg 86%
    06:00 +14°C° 0.1 mm 3 mps 749 mmHg 87%
    07:00 +16°C° 0.1 mm 3 mps 749 mmHg 88%
    08:00 +17°C° 0 mm 3 mps 749 mmHg 85%
    09:00 +18°C° 0 mm 3 mps 748 mmHg 82%
    10:00 +20°C° 0 mm 3 mps 748 mmHg 78%
    11:00 +21°C° 0.2 mm 3 mps 748 mmHg 76%
    12:00 +22°C° 0.2 mm 3 mps 748 mmHg 74%
    13:00 +22°C° 0.2 mm 3 mps 748 mmHg 72%
    14:00 +24°C° 0.4 mm 3 mps 747 mmHg 72%
    15:00 +24°C° 0.4 mm 3 mps 747 mmHg 73%
    16:00 +24°C° 0 mm 3 mps 747 mmHg 71%
    17:00 +23°C° 0.5 mm 2 mps 747 mmHg 76%
    18:00 +21°C° 0.5 mm 2 mps 747 mmHg 81%
    19:00 +21°C° 0.5 mm 1 mps 747 mmHg 86%
    20:00 +20°C° 0.5 mm 1 mps 746 mmHg 88%
    21:00 +19°C° 0.5 mm 1 mps 746 mmHg 90%
    22:00 +18°C° 0.5 mm 1 mps 746 mmHg 92%
    23:00 +17°C° 0.8 mm 2 mps 746 mmHg 93%

    Tomorrow, 22 August, Wednesday

    Time Temperature Precipitation Wind Pressure Humidity
    00:00 +17°C° 0.8 mm 2 mps 746 mmHg 94%
    01:00 +17°C° 0.8 mm 3 mps 746 mmHg 95%
    02:00 +17°C° 0.2 mm 3 mps 745 mmHg 94%
    03:00 +16°C° 0.2 mm 3 mps 745 mmHg 94%
    04:00 +16°C° 0.2 mm 3 mps 745 mmHg 93%
    05:00 +16°C° 0.1 mm 3 mps 745 mmHg 91%
    06:00 +17°C° 0.1 mm 3 mps 744 mmHg 89%
    07:00 +17°C° 0.1 mm 4 mps 744 mmHg 87%
    08:00 +19°C° 0 mm 4 mps 744 mmHg 83%
    09:00 +20°C° 0 mm 4 mps 744 mmHg 78%
    10:00 +22°C° 0 mm 5 mps 744 mmHg 73%
    11:00 +23°C° 0 mm 5 mps 744 mmHg 69%
    12:00 +24°C° 0 mm 6 mps 743 mmHg 66%
    13:00 +26°C° 0 mm 6 mps 743 mmHg 62%
    14:00 +24°C° 0.6 mm 6 mps 743 mmHg 65%
    15:00 +23°C° 0.6 mm 6 mps 743 mmHg 69%
    16:00 +22°C° 0.6 mm 6 mps 743 mmHg 73%
    17:00 +21°C° 0.7 mm 5 mps 743 mmHg 79%
    18:00 +19°C° 0.7 mm 4 mps 743 mmHg 84%
    19:00 +18°C° 0.7 mm 4 mps 744 mmHg 90%
    20:00 +17°C° 0.8 mm 4 mps 744 mmHg 91%
    21:00 +15°C° 0.8 mm 4 mps 744 mmHg 92%
    22:00 +14°C° 0.8 mm 4 mps 744 mmHg 93%
    23:00 +14°C° 0.4 mm 3 mps 744 mmHg 93%

    Day after tomorrow, 23 August, Thursday

    Time Temperature Precipitation Wind Pressure Humidity
    00:00 +13°C° 0.4 mm 3 mps 744 mmHg 94%
    01:00 +14°C° 0.4 mm 2 mps 744 mmHg 94%
    02:00 +12°C° 0 mm 3 mps 745 mmHg 94%
    03:00 +12°C° 0 mm 3 mps 745 mmHg 94%
    04:00 +11°C° 0 mm 3 mps 745 mmHg 94%
    05:00 +11°C° 0 mm 3 mps 745 mmHg 93%
    06:00 +11°C° 0 mm 4 mps 746 mmHg 92%
    07:00 +11°C° 0 mm 4 mps 746 mmHg 91%
    08:00 +12°C° 0 mm 5 mps 746 mmHg 86%
    09:00 +13°C° 0 mm 5 mps 747 mmHg 81%
    10:00 +14°C° 0 mm 5 mps 747 mmHg 75%
    11:00 +14°C° 0 mm 6 mps 747 mmHg 72%
    12:00 +15°C° 0 mm 6 mps 747 mmHg 69%
    13:00 +15°C° 0 mm 6 mps 747 mmHg 66%
    14:00 +14°C° 0.1 mm 6 mps 747 mmHg 68%
    15:00 +14°C° 0.1 mm 6 mps 748 mmHg 69%
    16:00 +13°C° 0.1 mm 6 mps 748 mmHg 70%
    17:00 +12°C° 0 mm 5 mps 748 mmHg 73%
    18:00 +12°C° 0 mm 4 mps 748 mmHg 76%
    19:00 +11°C° 0 mm 4 mps 749 mmHg 78%
    20:00 +11°C° 0 mm 3 mps 749 mmHg 79%
    21:00 +10°C° 0 mm 3 mps 749 mmHg 80%
    22:00 +10°C° 0 mm 3 mps 749 mmHg 81%
    23:00 +10°C° 0 mm 3 mps 749 mmHg 82%

    24 August, Friday

    Time Temperature Precipitation Wind Pressure Humidity
    00:00 +9°C° 0 mm 3 mps 749 mmHg 84%
    01:00 +9°C° 0 mm 3 mps 749 mmHg 85%
    02:00 +8°C° 0 mm 4 mps 749 mmHg 84%
    03:00 +7°C° 0 mm 4 mps 749 mmHg 83%
    04:00 +7°C° 0 mm 4 mps 749 mmHg 82%
    05:00 +8°C° 0 mm 4 mps 749 mmHg 81%
    06:00 +8°C° 0 mm 5 mps 750 mmHg 81%
    07:00 +8°C° 0 mm 5 mps 750 mmHg 80%
    08:00 +10°C° 0 mm 5 mps 750 mmHg 74%
    09:00 +13°C° 0 mm 5 mps 750 mmHg 68%
    10:00 +15°C° 0 mm 6 mps 749 mmHg 62%
    11:00 +15°C° 0 mm 6 mps 749 mmHg 60%
    12:00 +16°C° 0 mm 6 mps 749 mmHg 58%
    13:00 +17°C° 0 mm 6 mps 749 mmHg 56%
    14:00 +17°C° 0.1 mm 6 mps 749 mmHg 58%
    15:00 +17°C° 0.1 mm 6 mps 749 mmHg 59%
    16:00 +17°C° 0.1 mm 5 mps 749 mmHg 60%
    17:00 +17°C° 0.1 mm 4 mps 749 mmHg 65%
    18:00 +16°C° 0.1 mm 3 mps 750 mmHg 71%
    19:00 +14°C° 0.1 mm 3 mps 750 mmHg 76%
    20:00 +13°C° 0 mm 2 mps 750 mmHg 79%
    21:00 +12°C° 0 mm 2 mps 750 mmHg 83%
    22:00 +10°C° 0 mm 2 mps 750 mmHg 86%
    23:00 +10°C° 0 mm 2 mps 751 mmHg 87%

    25 August, Saturday

    Time Temperature Precipitation Wind Pressure Humidity
    00:00 +9°C° 0 mm 2 mps 751 mmHg 88%
    01:00 +9°C° 0 mm 2 mps 751 mmHg 89%
    02:00 +9°C° 0 mm 2 mps 751 mmHg 90%
    03:00 +8°C° 0 mm 2 mps 751 mmHg 91%
    04:00 +8°C° 0 mm 3 mps 752 mmHg 92%
    05:00 +9°C° 0 mm 3 mps 752 mmHg 90%
    06:00 +9°C° 0 mm 3 mps 752 mmHg 88%
    07:00 +10°C° 0 mm 4 mps 753 mmHg 86%
    08:00 +12°C° 0 mm 4 mps 753 mmHg 81%
    09:00 +13°C° 0 mm 4 mps 753 mmHg 77%
    10:00 +15°C° 0 mm 4 mps 753 mmHg 72%
    11:00 +17°C° 0 mm 4 mps 753 mmHg 69%
    12:00 +18°C° 0 mm 4 mps 753 mmHg 66%
    13:00 +19°C° 0 mm 4 mps 753 mmHg 64%
    14:00 +20°C° 0 mm 4 mps 753 mmHg 63%
    15:00 +20°C° 0 mm 4 mps 753 mmHg 62%
    16:00 +20°C° 0 mm 4 mps 753 mmHg 62%
    17:00 +19°C° 0 mm 4 mps 753 mmHg 67%
    18:00 +18°C° 0 mm 3 mps 753 mmHg 72%
    19:00 +16°C° 0 mm 3 mps 753 mmHg 77%
    20:00 +15°C° 0 mm 2 mps 754 mmHg 79%
    21:00 +14°C° 0 mm 2 mps 754 mmHg 81%
    22:00 +13°C° 0 mm 2 mps 754 mmHg 83%
    23:00 +12°C° 0 mm 2 mps 754 mmHg 84%

    26 August, Sunday

    Time Temperature Precipitation Wind Pressure Humidity
    00:00 +12°C° 0 mm 2 mps 754 mmHg 84%
    01:00 +10°C° 0 mm 2 mps 755 mmHg 85%
    02:00 +10°C° 0 mm 2 mps 755 mmHg 86%
    03:00 +9°C° 0 mm 2 mps 755 mmHg 87%
    04:00 +9°C° 0 mm 2 mps 755 mmHg 88%
    05:00 +10°C° 0 mm 2 mps 755 mmHg 86%
    06:00 +10°C° 0 mm 2 mps 755 mmHg 84%
    07:00 +12°C° 0 mm 2 mps 756 mmHg 82%
    08:00 +14°C° 0 mm 2 mps 755 mmHg 77%
    09:00 +16°C° 0 mm 3 mps 755 mmHg 71%
    10:00 +18°C° 0 mm 3 mps 755 mmHg 66%
    11:00 +19°C° 0 mm 3 mps 755 mmHg 62%
    12:00 +20°C° 0 mm 4 mps 755 mmHg 59%
    13:00 +21°C° 0 mm 4 mps 754 mmHg 56%
    14:00 +22°C° 0 mm 4 mps 754 mmHg 57%
    15:00 +22°C° 0 mm 4 mps 754 mmHg 58%
    16:00 +22°C° 0 mm 4 mps 754 mmHg 59%
    17:00 +21°C° 0 mm 4 mps 754 mmHg 65%
    18:00 +19°C° 0 mm 3 mps 754 mmHg 72%
    19:00 +18°C° 0 mm 2 mps 754 mmHg 78%
    20:00 +17°C° 0 mm 2 mps 754 mmHg 81%
    21:00 +16°C° 0 mm 2 mps 754 mmHg 84%
    22:00 +15°C° 0 mm 1 mps 754 mmHg 87%
    23:00 +14°C° 0 mm 1 mps 754 mmHg 87%
    Show more